Regional Weather Roundup
Issued by NWS

Home | Current Version | Previous Version | Graphics & Text | Print | Product List | Glossary On
Versions: 1 2 3 4 5 6 7 8 9 10 11 12 13 14 15 16 17 18 19 20 21 22 23 24 25 26 27 28 29 30 31 32 33 34 35 36 37 38 39 40 41 42 43 44 45 46 47 48 49 50
000
ASUS43 KLSX 251810
RWRMO

WEATHER SUMMARY FOR MISSOURI
NATIONAL WEATHER SERVICE SPRINGFIELD MO
100 PM CDT THU MAY 25 2017

NOTE: "FAIR" INDICATES FEW OR NO CLOUDS BELOW 12,000 FEET WITH NO
       SIGNIFICANT WEATHER AND/OR OBSTRUCTIONS TO VISIBILITY.
       CURRENT SKY AND/OR WEATHER CONDITIONS ARE NOT AVAILABLE FOR
       CHILLICOTHE AND FARMINGTON.

MOZ001>031-035>038-043-044-053-054-251900-
...NORTHERN AND WESTERN MISSOURI...

CITY           SKY/WX    TMP DP  RH WIND       PRES   REMARKS
KANSAS CTY INT MOSUNNY   72  51  47 SE12G20   29.67F
6HR MIN TEMP:  51; 6HR MAX TEMP:  72;

KANSAS C DTWN  SUNNY     73  51  46 S10       29.67F
6HR MIN TEMP:  52; 6HR MAX TEMP:  73;

LEE`S SUMMIT   SUNNY     71  51  49 SE10G18   29.69F
6HR MIN TEMP:  52; 6HR MAX TEMP:  71;

ST JOSEPH      SUNNY     72  51  47 S14G22    29.66F
6HR MIN TEMP:  47; 6HR MAX TEMP:  72;

CHILLICOTHE      N/A     70  50  49 S8        29.71F
6HR MIN TEMP:  46; 6HR MAX TEMP:  70;

KIRKSVILLE     MOSUNNY   68  50  52 MISG      29.73F
6HR MIN TEMP:  47; 6HR MAX TEMP:  69;


$$
MOZ066>068-077>081-088>096-101>105-251900-
...SOUTHWEST MISSOURI...

CITY           SKY/WX    TMP DP  RH WIND       PRES   REMARKS
SPRINGFIELD    SUNNY     71  52  50 S13       29.74F
6HR MIN TEMP:  49; 6HR MAX TEMP:  71;

JOPLIN         SUNNY     75  54  47 S10       29.70F
6HR MIN TEMP:  50; 6HR MAX TEMP:  75;

BRANSON        SUNNY     72  50  46 S7        29.77F

$$
MOZ032>034-039>042-045>050-055>058-069>072-251900-
...CENTRAL MISSOURI...

CITY           SKY/WX    TMP DP  RH WIND       PRES   REMARKS
COLUMBIA       MOSUNNY   67  50  54 SW6       29.74F
6HR MIN TEMP:  51; 6HR MAX TEMP:  70;

JEFFERSON CITY MOSUNNY   71  50  47 VRB7      29.73F
6HR MIN TEMP:  54; 6HR MAX TEMP:  71;

ROLLA          MOSUNNY   68  51  54 W12       29.75S
6HR MIN TEMP:  50; 6HR MAX TEMP:  68;

SEDALIA        SUNNY     71  51  49 SW8       29.73F
6HR MIN TEMP:  51; 6HR MAX TEMP:  71;

WHITEMAN AFB   MOSUNNY   70  51  51 S9        29.71F
WARRENSBURG    SUNNY     70  50  49 SE7       29.71F

$$
MOZ051-052-059>065-251900-
...EAST CENTRAL MISSOURI...

CITY           SKY/WX    TMP DP  RH WIND       PRES   REMARKS
ST LOUIS INTL  MOSUNNY   71  51  49 N8        29.73S
6HR MIN TEMP:  57; 6HR MAX TEMP:  74;

SPIRIT OF STL  MOSUNNY   72  54  53 SW12      29.72S
6HR MIN TEMP:  54; 6HR MAX TEMP:  72;

ST CHARLES     SUNNY     70  51  51 NW9       29.72S
6HR MIN TEMP:  55; 6HR MAX TEMP:  71;


$$
MOZ072>076-082>087-097>100-106>115-251900-
...SOUTH CENTRAL AND SOUTHEAST MISSOURI...

CITY           SKY/WX    TMP DP  RH WIND       PRES   REMARKS
CAPE GIRARDEAU MOSUNNY   71  50  47 W10       29.74S
6HR MIN TEMP:  53; 6HR MAX TEMP:  72;

FARMINGTON     MOSUNNY   70  51  51 W10G17    29.76S
6HR MIN TEMP:  51; 6HR MAX TEMP:  70;

POPLAR BLUFF   MOSUNNY   71  54  54 SW10      29.76S
6HR MIN TEMP:  53; 6HR MAX TEMP:  73;

WEST PLAINS    SUNNY     69  51  52 SW9G16    29.79F
6HR MIN TEMP:  48; 6HR MAX TEMP:  69;


$$




USA.gov is the U.S. government's official web portal to all federal, state and local government web resources and services.